Location: Unspecified
(54.1780°N, 0.0000°E)
Time: 03:52:17
(UTC+00:00)

Vanguard 2 - All Passes

Search period start: 17 June 2019 00:00
Search period end: 27 June 2019 00:00
Orbit: 553 x 2939 km, 32.9° (Epoch: 16 June)

Date Brightness Start Highest point End Pass type
(mag) Time Alt. Az. Time Alt. Az. Time Alt. Az.
17 Jun - 10:41:48 10° SSW 10:48:19 22° SSE 10:57:09 10° ESE daylight
17 Jun - 12:48:12 10° SW 12:56:35 25° S 13:07:48 10° SE daylight
17 Jun - 14:57:33 10° WSW 15:05:29 18° SSW 15:14:50 10° S daylight
18 Jun - 08:56:00 10° SSE 08:58:33 12° SE 09:01:25 10° SE daylight
18 Jun - 10:59:06 10° SW 11:05:43 22° SSE 11:14:45 10° SE daylight
18 Jun - 13:06:05 10° SW 13:14:06 23° S 13:24:36 10° SSE daylight
18 Jun - 15:16:53 10° SW 15:22:53 14° SSW 15:29:38 10° S daylight
19 Jun - 09:12:05 10° S 09:15:45 14° SSE 09:20:11 10° SE daylight
19 Jun - 11:16:35 10° SW 11:23:10 22° S 11:32:08 10° SE daylight
19 Jun - 13:24:12 10° SW 13:31:36 20° SSW 13:41:02 10° SSE daylight
20 Jun - 09:28:50 10° S 09:33:03 15° SSE 09:38:19 10° SE daylight
20 Jun - 11:34:14 10° SW 11:40:39 21° S 11:49:19 10° SE daylight
20 Jun - 13:42:42 10° SW 13:49:07 17° SSW 13:56:57 10° SSE daylight
21 Jun - 09:45:57 10° SSW 09:50:24 16° SSE 09:56:08 10° SE daylight
21 Jun - 11:52:05 10° SW 11:58:10 19° S 12:06:13 10° SE daylight
21 Jun - 14:02:00 10° SW 14:06:36 13° SSW 14:11:53 10° S daylight
22 Jun - 10:03:19 10° SSW 10:07:50 17° S 10:13:39 10° SE daylight
22 Jun - 12:10:12 10° SW 12:15:43 17° S 12:22:45 10° SSE daylight
23 Jun - 10:20:55 10° SSW 10:25:19 16° S 10:30:56 10° SE daylight
23 Jun - 12:28:46 10° SW 12:33:16 14° SSW 12:38:41 10° SSE daylight
24 Jun - 08:34:19 10° S 08:35:35 11° SSE 08:36:56 10° SSE daylight
24 Jun - 10:38:47 10° SSW 10:42:50 15° S 10:47:53 10° SSE daylight
24 Jun - 12:48:42 10° SSW 12:50:49 11° SSW 12:53:05 10° S daylight
25 Jun - 08:51:12 10° S 08:52:59 11° SSE 08:54:59 10° SSE daylight
25 Jun - 10:57:01 10° SSW 11:00:22 13° S 11:04:22 10° SSE daylight
26 Jun - 09:08:43 10° S 09:10:27 11° S 09:12:20 10° SSE daylight
26 Jun - 11:16:18 10° SSW 11:17:56 11° S 11:19:42 10° S daylight
